Palma de Mallorca, Spain

9:25 AM CEST on March 29, 2017 (GMT +0200)
Palma De Mallorca

Weather History for LEPA - April, 2012

Change the Weather History Date:

Monday, April 2, 2012

  Actual Average Record
Temperature  
Mean Temperature 58 °F -  
Max Temperature 67 °F 66 °F 75 °F (2011)
Min Temperature 48 °F 46 °F 37 °F (1997)
Degree Days  
Heating Degree Days 8    
Growing Degree Days 8 (Base 50)    
Moisture  
Dew Point 54 °F    
Average Humidity 88    
Maximum Humidity 100    
Minimum Humidity 64    
Precipitation  
Precipitation 0.00 in 0.05 in - ()
Sea Level Pressure  
Sea Level Pressure 29.78 in    
Wind  
Wind Speed 3 mph ()    
Max Wind Speed 13 mph    
Max Gust Speed -    
Visibility 4.7 miles    
Events Fog    
Averages and records for this station are not official NWS values.
T = Trace of Precipitation, MM = Missing Value Source: Averaged Metar Reports

Daily Weather History Graph

Daily Weather History Graph

Search for Another Location

Airport or City:

Trip Planner

Search our weather history database for the weather conditions in past years. The results will help you decide how hot, cold, wet, or windy it might be!

Date:

Astronomy

Apr. 02, 2012 Rise Set
Actual Time 7:31 AM CEST 8:14 PM CEST
Civil Twilight 7:04 AM CEST 8:41 PM CEST
Nautical Twilight 6:32 AM CEST 9:13 PM CEST
Astronomical Twilight 5:59 AM CEST 9:46 PM CEST
Moon 3:34 PM CEST (4/2) 4:34 AM CEST (4/2)
Length of Visible Light 13h 37m
Length of Day
12h 42m
Waxing Gibbous, 76% of the Moon is Illuminated
Apr 2
Waxing Gibbous
Apr 6
Full
Apr 13
Last Quarter
Apr 21
New
Apr 29
First Quarter

Hourly Weather History & Observations

Time (CEST) Temp. Dew Point Humidity Pressure Visibility Wind Dir Wind Speed Gust Speed Precip Events Conditions
12:00 AM 53.6 °F 51.8 °F 94% 29.80 in 4.3 mi NE 3.5 mph - N/A   Scattered Clouds
12:30 AM 53.6 °F 51.8 °F 94% 29.80 in 4.3 mi NE 3.5 mph - N/A   Partly Cloudy
1:00 AM 53.6 °F 51.8 °F 94% 29.80 in 4.3 mi ENE 3.5 mph - N/A   Partly Cloudy
1:30 AM 55.4 °F 53.6 °F 94% 29.80 in 4.3 mi Calm Calm - N/A   Partly Cloudy
2:00 AM 55 °F 53 °F 92% 29.82 in 4 mi Calm Calm - -   Mist
2:00 AM 55.4 °F 53.6 °F 94% 29.80 in 4.3 mi SSW 1.2 mph - N/A   Partly Cloudy
2:30 AM 51.8 °F 51.8 °F 100% 29.80 in 3.1 mi Calm Calm - N/A   Partly Cloudy
3:00 AM 51.8 °F 51.8 °F 100% 29.80 in 3.1 mi East 1.2 mph - N/A   Partly Cloudy
3:30 AM 53.6 °F 51.8 °F 94% 29.80 in 3.1 mi Calm Calm - N/A   Partly Cloudy
4:00 AM 51.8 °F 50.0 °F 94% 29.80 in 3.1 mi Calm Calm - N/A   Partly Cloudy
4:30 AM 51.8 °F 51.8 °F 100% 29.77 in 3.1 mi Calm Calm - N/A   Partly Cloudy
5:00 AM 51.8 °F 50.0 °F 94% 29.77 in 3.1 mi Calm Calm - N/A   Partly Cloudy
5:30 AM 51.8 °F 51.8 °F 100% 29.77 in 3.1 mi Calm Calm - N/A   Partly Cloudy
6:00 AM 51.8 °F 51.8 °F 100% 29.77 in 3.1 mi Calm Calm - N/A   Partly Cloudy
6:30 AM 50.0 °F 50.0 °F 100% 29.77 in 3.1 mi NNE 1.2 mph - N/A   Partly Cloudy
7:00 AM 50.0 °F 50.0 °F 100% 29.77 in 2.5 mi Calm Calm - N/A   Scattered Clouds
7:30 AM 50.0 °F 50.0 °F 100% 29.77 in 2.2 mi Calm Calm - N/A Fog Partly Cloudy
7:43 AM 50.0 °F 50.0 °F 100% 29.77 in 0.5 mi Variable 1.2 mph - N/A Fog Patches of Fog
8:00 AM 49 °F 49 °F 100% 29.77 in 0 mi North 1.2 mph - - Fog Patches of Fog
8:00 AM 48.2 °F 48.2 °F 100% 29.77 in 0.5 mi Variable 2.3 mph - N/A Fog Patches of Fog
8:30 AM 50.0 °F 50.0 °F 100% 29.77 in 5.0 mi Variable 1.2 mph - N/A   Partly Cloudy
9:00 AM 51.8 °F 51.8 °F 100% 29.77 in 5.0 mi Calm Calm - N/A   Partly Cloudy
9:30 AM 57.2 °F 55.4 °F 94% 29.80 in 6.2 mi Calm Calm - N/A   Partly Cloudy
10:00 AM 59.0 °F 55.4 °F 88% 29.80 in 6.2 mi Calm Calm - N/A   Partly Cloudy
10:30 AM 62.6 °F 55.4 °F 77% 29.80 in 6.2 mi Calm Calm - N/A   Partly Cloudy
11:00 AM 64.4 °F 55.4 °F 73% 29.80 in 6.2 mi Calm Calm - N/A   Partly Cloudy
11:30 AM 64.4 °F 53.6 °F 68% 29.80 in 6.2 mi Variable 1.2 mph - N/A   Partly Cloudy
12:00 PM 64.4 °F 53.6 °F 68% 29.80 in 6.2 mi WSW 3.5 mph - N/A   Partly Cloudy
12:30 PM 66.2 °F 53.6 °F 64% 29.80 in 6.2 mi WSW 3.5 mph - N/A   Partly Cloudy
1:00 PM 62.6 °F 57.2 °F 82% 29.80 in 6.2 mi SW 11.5 mph - N/A   Partly Cloudy
1:30 PM 62.6 °F 57.2 °F 82% 29.80 in 6.2 mi SW 10.4 mph - N/A   Partly Cloudy
2:00 PM 63 °F 58 °F 78% 29.81 in 9 mi SW 10.4 mph - -   Scattered Clouds
2:00 PM 62.6 °F 57.2 °F 82% 29.80 in 6.2 mi SSW 10.4 mph - N/A   Partly Cloudy
2:30 PM 64.4 °F 55.4 °F 73% 29.80 in 6.2 mi SW 9.2 mph - N/A   Partly Cloudy
3:00 PM 64.4 °F 55.4 °F 73% 29.80 in 6.2 mi SW 9.2 mph - N/A   Partly Cloudy
3:30 PM 64.4 °F 57.2 °F 77% 29.77 in 6.2 mi SW 11.5 mph - N/A   Partly Cloudy
4:00 PM 64.4 °F 55.4 °F 73% 29.77 in 6.2 mi SW 11.5 mph - N/A   Partly Cloudy
4:30 PM 64.4 °F 57.2 °F 77% 29.77 in 6.2 mi SW 10.4 mph - N/A   Partly Cloudy
5:00 PM 64.4 °F 55.4 °F 73% 29.74 in 6.2 mi SW 11.5 mph - N/A   Partly Cloudy
5:30 PM 64.4 °F 57.2 °F 77% 29.74 in 6.2 mi SW 11.5 mph - N/A   Partly Cloudy
6:00 PM 64.4 °F 57.2 °F 77% 29.74 in 6.2 mi SW 12.7 mph - N/A   Partly Cloudy
6:30 PM 64.4 °F 57.2 °F 77% 29.74 in 6.2 mi SW 10.4 mph - N/A   Partly Cloudy
7:00 PM 62.6 °F 59.0 °F 88% 29.74 in 6.2 mi SSW 9.2 mph - N/A   Partly Cloudy
7:30 PM 62.6 °F 57.2 °F 82% 29.74 in 6.2 mi SSW 8.1 mph - N/A   Partly Cloudy
8:00 PM 61 °F 58 °F 88% 29.77 in 6 mi SW 8.1 mph - -   Mist
8:00 PM 60.8 °F 59.0 °F 94% 29.77 in 5.6 mi SW 6.9 mph - N/A   Partly Cloudy
8:30 PM 60.8 °F 59.0 °F 94% 29.77 in 3.7 mi SSW 6.9 mph - N/A   Partly Cloudy
9:00 PM 60.8 °F 59.0 °F 94% 29.77 in 4.3 mi SSW 5.8 mph - N/A   Scattered Clouds
9:30 PM 60.8 °F 57.2 °F 88% 29.77 in 4.3 mi SSW 2.3 mph - N/A   Scattered Clouds
10:00 PM 60.8 °F 57.2 °F 88% 29.80 in 4.3 mi Calm Calm - N/A   Partly Cloudy
10:30 PM 60.8 °F 57.2 °F 88% 29.80 in 4.3 mi Calm Calm - N/A   Scattered Clouds
11:00 PM 60.8 °F 59.0 °F 94% 29.80 in 4.3 mi Calm Calm - N/A   Mostly Cloudy
11:30 PM 60.8 °F 59.0 °F 94% 29.80 in 4.3 mi Calm Calm - N/A   Scattered Clouds